EW9060 Weather Reports


time (UTC)temp
F
wind
direction
speed
knots
gust
knots
rain 1hr
in
rain 24hr
in
rain mn
in
humidity
%
barometer
mb
20260831064541 67 11 3.5 7.8 0.00 0.00 0.00 63 1010.9
20260831063040 67 12 0.0 5.2 0.00 0.00 0.00 63 1011.0
20260831061539 67 11 1.7 5.2 0.00 0.00 0.00 63 1010.9
20260831060039 68 11 0.9 4.3 0.00 0.00 0.00 62 1010.8
20260831054538 68 12 1.7 5.2 0.00 0.00 0.00 61 1010.8
20260831053038 69 12 0.9 7.0 0.00 0.00 0.00 60 1010.8
20260831051550 70 11 0.9 7.0 0.00 0.00 0.00 58 1010.9
20260831050037 70 12 1.7 7.0 0.00 0.00 0.00 56 1010.8
20260831044536 71 12 0.9 7.0 0.00 0.00 0.00 55 1010.7
20260831043035 72 12 0.0 7.0 0.00 0.00 0.00 54 1010.6
20260831041537 73 12 0.9 7.0 0.00 0.00 0.00 52 1010.6
20260831041505 73 11 0.9 7.0 0.00 0.00 0.00 52 1010.7
20260831040036 75 13 0.9 8.7 0.00 0.00 0.00 49 1010.4
20260831034537 77 12 2.6 6.1 0.00 0.00 0.00 46 1010.4
20260831033034 78 11 1.7 7.8 0.00 0.00 0.00 44 1010.2
20260831031532 79 13 1.7 7.8 0.00 0.00 0.00 40 1010.1
20260831030032 80 139 0.0 7.0 0.00 0.00 0.00 37 1010.1
20260831024534 81 178 0.9 7.8 0.00 0.00 0.00 37 1010.0
20260831023030 83 208 0.9 10.4 0.00 0.00 0.00 34 1009.9
20260831021531 85 184 2.6 6.1 0.00 0.00 0.00 30 1009.9
20260831020029 87 162 1.7 5.2 0.00 0.00 0.00 27 1009.8
20260831014530 89 169 0.0 6.1 0.00 0.00 0.00 29 1009.8
20260831013028 90 179 0.0 6.1 0.00 0.00 0.00 30 1009.8
20260831011537 92 186 1.7 7.0 0.00 0.00 0.00 29 1009.9
20260831010025 92 248 0.0 4.3 0.00 0.00 0.00 27 1010.0
20260831004523 93 139 0.0 7.0 0.00 0.00 0.00 27 1010.0
20260831003033 93 283 0.0 3.5 0.00 0.00 0.00 25 1010.1
20260831001521 93 212 1.7 7.0 0.00 0.00 0.00 25 1010.2
20260831000021 93 266 0.0 7.0 0.00 0.00 0.00 27 1010.3
20260830234527 93 248 0.9 4.3 0.00 0.00 0.00 28 1010.4
20260830233012 93 267 0.9 4.3 0.00 0.00 0.00 29 1010.6
20260830231508 93 194 1.7 4.3 0.00 0.00 0.00 30 1010.7
20260830230005 92 300 0.0 4.3 0.00 0.00 0.00 31 1010.9
20260830224600 92 176 0.0 2.6 0.00 0.00 0.00 30 1011.0
20260830223110 91 319 0.9 4.3 0.00 0.00 0.00 30 1011.2
20260830221554 91 274 0.0 4.3 0.00 0.00 0.00 31 1011.5
20260830220051 89 296 0.9 3.5 0.00 0.00 0.00 31 1011.8
20260830214555 89 165 0.9 3.5 0.00 0.00 0.00 32 1012.0
20260830213044 89 298 0.9 5.2 0.00 0.00 0.00 32 1012.2
20260830211541 88 98 0.0 2.6 0.00 0.00 0.00 35 1012.4
20260830210038 86 315 0.0 5.2 0.00 0.00 0.00 35 1012.5
20260830204536 86 263 0.9 4.3 0.00 0.00 0.00 37 1012.7
20260830203034 85 30 0.9 2.6 0.00 0.00 0.00 38 1012.9
20260830201532 85 254 0.0 2.6 0.00 0.00 0.00 39 1013.0
20260830200041 83 137 0.9 4.3 0.00 0.00 0.00 41 1013.2
20260830194524 82 148 0.0 4.3 0.00 0.00 0.00 43 1013.3
20260830193022 81 88 0.9 3.5 0.00 0.00 0.00 43 1013.5
20260830191519 79 303 0.0 3.5 0.00 0.00 0.00 46 1013.6
20260830190039 79 110 0.9 3.5 0.00 0.00 0.00 45 1013.8
20260830184514 78 239 0.0 3.5 0.00 0.00 0.00 47 1013.9
20260830183011 76 121 0.0 5.2 0.00 0.00 0.00 50 1013.9
20260830181508 76 252 0.9 1.7 0.00 0.00 0.00 51 1014.1
20260830180004 74 237 0.9 4.3 0.00 0.00 0.00 53 1014.2
20260830174609 73 178 0.0 2.6 0.00 0.00 0.00 56 1014.4
20260830173056 71 109 0.0 3.5 0.00 0.00 0.00 58 1014.4
20260830171553 70 170 0.0 3.5 0.00 0.00 0.00 60 1014.4
20260830170049 69 76 0.0 3.5 0.00 0.00 0.00 61 1014.4
20260830164545 68 101 0.0 2.6 0.00 0.00 0.00 63 1014.4
20260830163042 67 86 0.0 2.6 0.00 0.00 0.00 65 1014.4
20260830161546 66 48 0.9 3.5 0.00 0.00 0.00 67 1014.4
20260830160041 65 55 0.0 3.5 0.00 0.00 0.00 69 1014.3
20260830154536 64 139 0.0 2.6 0.00 0.00 0.00 70 1014.3
20260830153034 63 138 0.0 0.0 0.00 0.00 0.00 72 1014.3
20260830151533 62 15 0.9 2.6 0.00 0.00 0.00 74 1014.2
20260830150031 61 11 0.0 2.6 0.00 0.00 0.00 75 1014.2
20260830144532 60 13 0.0 2.6 0.00 0.00 0.00 77 1014.1
20260830143026 59 13 0.0 2.6 0.00 0.00 0.00 78 1014.0
20260830141524 59 17 0.0 1.7 0.00 0.00 0.00 79 1013.7
20260830140024 58 151 0.0 1.7 0.00 0.00 0.00 79 1013.6
20260830134527 58 123 0.9 3.5 0.00 0.00 0.00 79 1013.4
20260830133019 59 145 0.0 4.3 0.00 0.00 0.00 79 1013.3
20260830131515 59 107 0.0 0.0 0.00 0.00 0.00 78 1013.2
20260830130015 59 158 0.0 3.5 0.00 0.00 0.00 77 1013.0
20260830124517 59 178 0.0 4.3 0.00 0.00 0.00 77 1012.8
20260830123010 60 124 0.0 4.3 0.00 0.00 0.00 76 1012.8
20260830121510 60 192 0.0 4.3 0.00 0.00 0.00 76 1012.8
20260830120007 60 151 0.0 2.6 0.00 0.00 0.00 75 1012.8
20260830114505 60 167 0.0 3.5 0.00 0.00 0.00 74 1012.8
20260830113004 61 150 0.0 4.3 0.00 0.00 0.00 73 1012.9
20260830111503 61 159 0.0 7.0 0.00 0.00 0.00 73 1012.8
20260830110100 61 189 0.0 4.3 0.00 0.00 0.00 72 1012.8
20260830104607 62 174 0.9 7.0 0.00 0.00 0.00 71 1012.7
20260830103058 62 155 1.7 7.0 0.00 0.00 0.00 70 1012.6
20260830101555 62 142 0.0 6.1 0.00 0.00 0.00 69 1012.5
20260830100054 62 134 1.7 7.0 0.00 0.00 0.00 68 1012.5
20260830094551 63 161 1.7 8.7 0.00 0.00 0.00 68 1012.5
20260830093049 63 157 0.9 7.0 0.00 0.00 0.00 67 1012.5
20260830091548 63 157 0.9 7.8 0.00 0.00 0.00 66 1012.7
20260830090046 64 149 1.7 7.8 0.00 0.00 0.00 65 1012.7
20260830084547 64 132 0.9 9.6 0.00 0.00 0.00 65 1012.5
20260830083057 64 130 0.9 6.1 0.00 0.00 0.00 65 1012.7
20260830081540 64 118 2.6 7.0 0.00 0.00 0.00 65 1012.7
20260830080040 65 148 2.6 8.7 0.00 0.00 0.00 64 1012.6
20260830074537 65 124 0.9 7.8 0.00 0.00 0.00 64 1012.5
20260830073038 65 204 2.6 8.7 0.00 0.00 0.00 64 1012.5
20260830071533 66 144 0.9 6.1 0.00 0.00 0.00 64 1012.4
20260830070031 66 142 0.9 7.0 0.00 0.00 0.00 64 1012.3